Paso Robles, CA

5:25 PM PDT on April 19, 2018 (GMT -0700)
Paso Robles Municipal

Weather History for KPRB - January, 2014

Change the Weather History Date:

Tuesday, January 28, 2014

  Actual Average Record
Temperature  
Mean Temperature 55 °F 48 °F  
Max Temperature 74 °F 60 °F 76 °F (1976)
Min Temperature 36 °F 36 °F 17 °F (1975)
Degree Days  
Heating Degree Days 10 17  
Month to date heating degree days 342 501  
Since 1 July heating degree days 1377 1625  
Cooling Degree Days 0 0  
Month to date cooling degree days 0 0  
Year to date cooling degree days 0 0  
Growing Degree Days 5 (Base 50)    
Moisture  
Dew Point 33 °F    
Average Humidity 50    
Maximum Humidity 77    
Minimum Humidity 23    
Precipitation  
Precipitation 0.00 in 0.08 in 0.46 in (1981)
Month to date precipitation 0.00 2.47  
Year to date precipitation 0.00 2.47  
Since 1 July precipitation 0.46  
Sea Level Pressure  
Sea Level Pressure 30.19 in    
Wind  
Wind Speed 4 mph (ENE)    
Max Wind Speed 12 mph    
Max Gust Speed 14 mph    
Visibility 10 miles    
Events      
T = Trace of Precipitation, MM = Missing Value Source: NWS Daily Summary

Daily Weather History Graph

Daily Weather History Graph

Search for Another Location

Airport or City:

Astronomy

Jan. 28, 2014 Rise Set
Actual Time 7:05 AM PST 5:26 PM PST
Civil Twilight 6:38 AM PST 5:53 PM PST
Nautical Twilight 6:07 AM PST 6:23 PM PST
Astronomical Twilight 5:37 AM PST 6:54 PM PST
Moon 4:50 AM PST (1/28) 3:22 PM PST (1/28)
Length of Visible Light 11h 14m
Length of Day
10h 20m
Waning Crescent, 6% of the Moon is Illuminated
Jan 28
Waning Crescent
Jan 30
New
Feb 6
First Quarter
Feb 14
Full
Feb 22
Last Quarter

Hourly Weather History & Observations

Time (PST) Temp. Windchill Dew Point Humidity Pressure Visibility Wind Dir Wind Speed Gust Speed Precip Events Conditions
12:53 AM 45.0 °F 43.5 °F 28.0 °F 52% 30.18 in 10.0 mi NNE 3.5 mph - N/A   Clear
1:53 AM 41.0 °F 38.0 °F 27.0 °F 57% 30.18 in 10.0 mi ESE 4.6 mph - N/A   Clear
2:53 AM 39.9 °F 36.7 °F 27.0 °F 60% 30.18 in 10.0 mi ESE 4.6 mph - N/A   Clear
3:53 AM 39.0 °F - 25.0 °F 57% 30.19 in 10.0 mi Calm Calm - N/A   Clear
4:53 AM 39.0 °F - 25.0 °F 57% 30.19 in 10.0 mi Calm Calm - N/A   Clear
5:53 AM 37.0 °F 33.3 °F 25.0 °F 62% 30.20 in 10.0 mi East 4.6 mph - N/A   Clear
6:53 AM 39.0 °F 35.7 °F 24.1 °F 55% 30.21 in 10.0 mi ESE 4.6 mph - N/A   Clear
7:53 AM 37.9 °F 33.5 °F 24.1 °F 57% 30.23 in 10.0 mi ENE 5.8 mph - N/A   Clear
8:53 AM 46.0 °F - 26.1 °F 46% 30.24 in 10.0 mi Calm Calm - N/A   Clear
9:53 AM 53.1 °F - 30.0 °F 41% 30.25 in 10.0 mi NNW 4.6 mph - N/A   Clear
10:53 AM 57.9 °F - 37.0 °F 46% 30.23 in 10.0 mi NW 4.6 mph - N/A   Clear
11:53 AM 64.0 °F - 36.0 °F 35% 30.21 in 10.0 mi North 3.5 mph - N/A   Clear
12:53 PM 68.0 °F - 32.0 °F 26% 30.16 in 10.0 mi Variable 5.8 mph - N/A   Clear
1:53 PM 71.1 °F - 34.0 °F 26% 30.14 in 10.0 mi Variable 5.8 mph - N/A   Clear
2:53 PM 73.0 °F - 39.0 °F 29% 30.12 in 10.0 mi East 6.9 mph - N/A   Clear
3:53 PM 73.0 °F - 34.0 °F 24% 30.12 in 10.0 mi ESE 9.2 mph - N/A   Clear
4:53 PM 71.1 °F - 35.1 °F 27% 30.14 in 10.0 mi East 9.2 mph - N/A   Clear
5:53 PM 66.0 °F - 36.0 °F 33% 30.15 in 10.0 mi East 10.4 mph - N/A   Clear
6:53 PM 64.0 °F - 36.0 °F 35% 30.17 in 10.0 mi West 5.8 mph - N/A   Clear
7:53 PM 59.0 °F - 44.1 °F 58% 30.19 in 10.0 mi NW 3.5 mph - N/A   Clear
8:53 PM 57.9 °F - 48.0 °F 70% 30.19 in 10.0 mi Calm Calm - N/A   Clear
9:53 PM 55.0 °F - 48.0 °F 77% 30.19 in 10.0 mi Calm Calm - N/A   Clear
10:53 PM 52.0 °F - 44.1 °F 74% 30.20 in 10.0 mi Calm Calm - N/A   Clear
11:53 PM 48.0 °F - 37.0 °F 66% 30.20 in 10.0 mi East 3.5 mph - N/A   Clear